Hourly Weather Barnsley

Today, 19 April, Monday

Time Temperature Precipitation Wind Pressure Humidity
00:00 +5°C° 0 mm 1 mps 757 mmHg 80%
01:00 +5°C° 0 mm 1 mps 757 mmHg 80%
02:00 +5°C° 0 mm 1 mps 757 mmHg 80%
03:00 +3°C° 0 mm 0 mps 757 mmHg 81%
04:00 +3°C° 0 mm 0 mps 757 mmHg 80%
05:00 +4°C° 0 mm 0 mps 756 mmHg 79%
06:00 +4°C° 0 mm 0 mps 756 mmHg 78%
07:00 +6°C° 0 mm 0 mps 756 mmHg 70%
08:00 +9°C° 0 mm 1 mps 756 mmHg 61%
09:00 +11°C° 0 mm 1 mps 756 mmHg 53%
10:00 +12°C° 0 mm 1 mps 756 mmHg 50%
11:00 +13°C° 0 mm 2 mps 755 mmHg 46%
12:00 +14°C° 0 mm 2 mps 755 mmHg 43%
13:00 +15°C° 0 mm 2 mps 755 mmHg 44%
14:00 +15°C° 0 mm 2 mps 754 mmHg 44%
15:00 +15°C° 0 mm 2 mps 754 mmHg 45%
16:00 +15°C° 0 mm 2 mps 754 mmHg 50%
17:00 +14°C° 0 mm 2 mps 754 mmHg 55%
18:00 +13°C° 0 mm 2 mps 754 mmHg 60%
19:00 +12°C° 0 mm 2 mps 754 mmHg 66%
20:00 +9°C° 0 mm 2 mps 754 mmHg 72%
21:00 +8°C° 0 mm 2 mps 754 mmHg 77%
22:00 +9°C° 0 mm 1 mps 754 mmHg 79%
23:00 +8°C° 0 mm 1 mps 754 mmHg 80%

Tomorrow, 20 April, Tuesday

Time Temperature Precipitation Wind Pressure Humidity
00:00 +8°C° 0 mm 1 mps 754 mmHg 81%
01:00 +8°C° 0 mm 1 mps 754 mmHg 81%
02:00 +8°C° 0 mm 1 mps 753 mmHg 81%
03:00 +7°C° 0 mm 1 mps 753 mmHg 81%
04:00 +7°C° 0 mm 0 mps 753 mmHg 81%
05:00 +7°C° 0 mm 0 mps 753 mmHg 80%
06:00 +7°C° 0 mm 0 mps 754 mmHg 80%
07:00 +8°C° 0 mm 0 mps 754 mmHg 76%
08:00 +9°C° 0 mm 0 mps 754 mmHg 71%
09:00 +11°C° 0 mm 0 mps 754 mmHg 67%
10:00 +11°C° 0 mm 0 mps 754 mmHg 62%
11:00 +13°C° 0 mm 1 mps 754 mmHg 58%
12:00 +14°C° 0 mm 1 mps 754 mmHg 53%
13:00 +14°C° 0 mm 1 mps 753 mmHg 53%
14:00 +14°C° 0 mm 1 mps 753 mmHg 53%
15:00 +14°C° 0 mm 2 mps 753 mmHg 53%
16:00 +14°C° 0.1 mm 2 mps 753 mmHg 57%
17:00 +13°C° 0.1 mm 2 mps 753 mmHg 62%
18:00 +13°C° 0.1 mm 2 mps 753 mmHg 67%
19:00 +12°C° 0.1 mm 2 mps 754 mmHg 73%
20:00 +9°C° 0.1 mm 2 mps 754 mmHg 78%
21:00 +9°C° 0.1 mm 1 mps 754 mmHg 84%
22:00 +8°C° 0.1 mm 2 mps 755 mmHg 86%
23:00 +8°C° 0.1 mm 2 mps 755 mmHg 87%

Day after tomorrow, 21 April, Wednesday

Time Temperature Precipitation Wind Pressure Humidity
00:00 +8°C° 0.1 mm 2 mps 755 mmHg 89%
01:00 +7°C° 0.1 mm 2 mps 755 mmHg 90%
02:00 +7°C° 0.1 mm 3 mps 755 mmHg 90%
03:00 +7°C° 0.1 mm 3 mps 756 mmHg 91%
04:00 +5°C° 0 mm 3 mps 756 mmHg 89%
05:00 +5°C° 0 mm 3 mps 756 mmHg 86%
06:00 +5°C° 0 mm 3 mps 757 mmHg 83%
07:00 +6°C° 0 mm 4 mps 757 mmHg 76%
08:00 +6°C° 0 mm 4 mps 757 mmHg 69%
09:00 +7°C° 0 mm 4 mps 758 mmHg 62%
10:00 +8°C° 0 mm 4 mps 758 mmHg 57%
11:00 +10°C° 0 mm 4 mps 758 mmHg 51%
12:00 +11°C° 0 mm 4 mps 758 mmHg 46%
13:00 +11°C° 0 mm 3 mps 757 mmHg 44%
14:00 +11°C° 0 mm 3 mps 757 mmHg 42%
15:00 +11°C° 0 mm 3 mps 757 mmHg 41%
16:00 +10°C° 0 mm 3 mps 757 mmHg 44%
17:00 +9°C° 0 mm 3 mps 757 mmHg 48%
18:00 +9°C° 0 mm 3 mps 758 mmHg 52%
19:00 +7°C° 0 mm 3 mps 758 mmHg 58%
20:00 +5°C° 0 mm 2 mps 758 mmHg 64%
21:00 +4°C° 0 mm 1 mps 759 mmHg 69%
22:00 +4°C° 0 mm 1 mps 759 mmHg 71%
23:00 +3°C° 0 mm 1 mps 759 mmHg 73%

22 April, Thursday

Time Temperature Precipitation Wind Pressure Humidity
00:00 +3°C° 0 mm 1 mps 759 mmHg 74%
01:00 +3°C° 0 mm 1 mps 759 mmHg 74%
02:00 +3°C° 0 mm 1 mps 759 mmHg 74%
03:00 +3°C° 0 mm 1 mps 759 mmHg 73%
04:00 +3°C° 0 mm 1 mps 759 mmHg 71%
05:00 +4°C° 0 mm 1 mps 759 mmHg 69%
06:00 +4°C° 0 mm 1 mps 759 mmHg 67%
07:00 +6°C° 0 mm 1 mps 759 mmHg 61%
08:00 +8°C° 0 mm 1 mps 759 mmHg 56%
09:00 +10°C° 0 mm 1 mps 759 mmHg 50%
10:00 +12°C° 0 mm 2 mps 759 mmHg 47%
11:00 +13°C° 0 mm 2 mps 759 mmHg 44%
12:00 +14°C° 0 mm 2 mps 759 mmHg 42%
13:00 +14°C° 0 mm 2 mps 759 mmHg 41%
14:00 +15°C° 0 mm 2 mps 759 mmHg 41%
15:00 +15°C° 0 mm 2 mps 759 mmHg 40%
16:00 +14°C° 0 mm 2 mps 759 mmHg 46%
17:00 +12°C° 0 mm 3 mps 759 mmHg 51%
18:00 +11°C° 0 mm 3 mps 759 mmHg 56%
19:00 +9°C° 0 mm 2 mps 760 mmHg 63%
20:00 +7°C° 0 mm 2 mps 760 mmHg 69%
21:00 +6°C° 0 mm 1 mps 761 mmHg 76%
22:00 +6°C° 0 mm 1 mps 761 mmHg 76%
23:00 +5°C° 0 mm 1 mps 761 mmHg 77%

23 April, Friday

Time Temperature Precipitation Wind Pressure Humidity
00:00 +4°C° 0 mm 0 mps 761 mmHg 77%
01:00 +4°C° 0 mm 0 mps 761 mmHg 77%
02:00 +3°C° 0 mm 0 mps 761 mmHg 77%
03:00 +3°C° 0 mm 0 mps 761 mmHg 77%
04:00 +4°C° 0 mm 0 mps 761 mmHg 76%
05:00 +5°C° 0 mm 1 mps 761 mmHg 75%
06:00 +6°C° 0 mm 1 mps 761 mmHg 74%
07:00 +8°C° 0 mm 1 mps 761 mmHg 67%
08:00 +10°C° 0 mm 1 mps 761 mmHg 61%
09:00 +12°C° 0 mm 1 mps 761 mmHg 55%
10:00 +13°C° 0 mm 1 mps 761 mmHg 51%
11:00 +15°C° 0 mm 1 mps 760 mmHg 47%
12:00 +16°C° 0 mm 1 mps 760 mmHg 42%
13:00 +16°C° 0 mm 1 mps 760 mmHg 41%
14:00 +18°C° 0 mm 1 mps 760 mmHg 40%
15:00 +18°C° 0 mm 1 mps 760 mmHg 39%
16:00 +16°C° 0 mm 2 mps 760 mmHg 46%
17:00 +14°C° 0 mm 3 mps 760 mmHg 54%
18:00 +13°C° 0 mm 3 mps 760 mmHg 61%
19:00 +11°C° 0 mm 3 mps 761 mmHg 67%
20:00 +8°C° 0 mm 3 mps 762 mmHg 73%
21:00 +6°C° 0 mm 2 mps 762 mmHg 79%
22:00 +6°C° 0 mm 2 mps 763 mmHg 81%
23:00 +5°C° 0 mm 2 mps 763 mmHg 82%

24 April, Saturday

Time Temperature Precipitation Wind Pressure Humidity
00:00 +5°C° 0 mm 2 mps 763 mmHg 84%
01:00 +4°C° 0 mm 2 mps 763 mmHg 85%
02:00 +4°C° 0 mm 2 mps 763 mmHg 85%
03:00 +4°C° 0 mm 2 mps 763 mmHg 86%
04:00 +4°C° 0 mm 2 mps 763 mmHg 85%
05:00 +5°C° 0 mm 1 mps 763 mmHg 84%
06:00 +5°C° 0 mm 1 mps 764 mmHg 83%
07:00 +6°C° 0 mm 2 mps 764 mmHg 78%
08:00 +7°C° 0 mm 2 mps 764 mmHg 74%
09:00 +8°C° 0 mm 3 mps 764 mmHg 70%
10:00 +9°C° 0 mm 3 mps 764 mmHg 68%
11:00 +10°C° 0 mm 3 mps 764 mmHg 65%
12:00 +10°C° 0 mm 3 mps 764 mmHg 63%
13:00 +11°C° 0 mm 3 mps 764 mmHg 61%
14:00 +11°C° 0 mm 3 mps 764 mmHg 59%
15:00 +12°C° 0 mm 3 mps 764 mmHg 57%
16:00 +11°C° 0 mm 3 mps 764 mmHg 58%
17:00 +10°C° 0 mm 3 mps 764 mmHg 60%
18:00 +10°C° 0 mm 3 mps 764 mmHg 62%
19:00 +8°C° 0 mm 2 mps 764 mmHg 67%
20:00 +6°C° 0 mm 2 mps 764 mmHg 72%
21:00 +6°C° 0 mm 1 mps 765 mmHg 77%
22:00 +5°C° 0 mm 1 mps 764 mmHg 78%
23:00 +5°C° 0 mm 1 mps 764 mmHg 79%
Show more